Regional Weather Roundup
Issued by NWS

Home | Current Version | Previous Version | Text Only | Print | Product List | Glossary On
Versions: 1 2 3 4 5 6 7 8 9 10 11 12 13 14 15 16 17 18 19 20 21 22 23 24 25 26 27 28 29 30 31 32 33 34 35 36 37 38 39 40 41 42 43 44 45 46 47 48 49 50
000
ASUS44 KJAN 290503
RWRMS

MISSISSIPPI HOURLY WEATHER ROUNDUP
NATIONAL WEATHER SERVICE JACKSON MS
1200 AM CDT SUN MAY 29 2016

NOTE: "FAIR: INDICATES FEW OR NO CLOUDS BELOW 12,000 FEET WITH NO
SIGNIFICANT WEATHER AND/OR OBSTRUCTIONS TO VISIBILITY.

MSZ001>002-007>008-010>013-018>021-025>028-034>036-290600-
NORTHWEST MISSISSIPPI

CITY           SKY/WX    TMP DP  RH WIND       PRES   REMARKS
BATESVILLE     FAIR      68  67  96 CALM      30.07R
CLARKSDALE     CLEAR     72  72 100 CALM      30.05R
CLEVELAND      FAIR      72  72 100 S6        30.04S
GREENWOOD      CLEAR     72  66  81 S5        30.05F
GREENVILLE     CLEAR     70  67  90 CALM      30.04F
OLIVE BRANCH   CLEAR     68  68 100 S5        30.06S
OXFORD         FAIR      68  64  88 S3        30.09S
TUNICA         CLEAR     68  68 100 SE3       30.06R
WINONA         FAIR      68  67  97 CALM      30.07S
$$

MSZ003>006-009-014>017-022>024-029>033-037>039-290600-
NORTHEAST MISSISSIPPI

CITY           SKY/WX    TMP DP  RH WIND       PRES   REMARKS
COLUMBUS AFB   CLEAR     70  66  89 CALM      30.07S
CORINTH        FAIR      70  66  88 CALM      30.07S
GOLDN TRIANGLE CLEAR     73  64  73 CALM      30.07F
STARKVILLE     FAIR      68  64  88 CALM      30.06F
TUPELO         CLEAR     71  68  90 CALM      30.07F
$$

MSZ040-058-290600-
CENTRAL MISSISSIPPI

CITY           SKY/WX    TMP DP  RH WIND       PRES   REMARKS
JACKSON INTL   CLEAR     70  66  87 CALM      30.07S
JACKSON HAWKNS CLEAR     72  68  87 CALM      30.07S
MADISON        FAIR      68  68 100 CALM      30.07S
MERIDIAN KEY   PTCLDY    71  66  84 CALM      30.08S
MERIDIAN NAS   CLEAR     71  66  84 CALM      30.08S
VICKSBURG TVR  CLEAR     72  69  90 CALM      30.05S
VICKSBURG VKS  CLEAR     75  70  83 SE5       30.06S
$$

MSZ059>079-290600-
SOUTH MISSISSIPPI

CITY           SKY/WX    TMP DP  RH WIND       PRES   REMARKS
BROOKHAVEN     FAIR     N/A N/A N/A CALM      30.09S
COLUMBIA       FAIR      66  64  94 CALM      30.11S
HATTIESBURG    CLEAR     70  66  87 CALM      30.08S
MCCOMB         CLEAR     69  66  90 CALM      30.08S
NATCHEZ        CLEAR     72  66  83 SE5       30.07S
PINE BELT      CLEAR     68  63  83 CALM      30.09S
$$

MSZ080>082-290600-
COASTAL MISSISSIPPI

CITY           SKY/WX    TMP DP  RH WIND       PRES   REMARKS
BILOXI         CLEAR     73  73 100 NE2       30.07S
PASCAGOULA     CLEAR     67  66  97 CALM      30.07S
GULFPORT       CLEAR     71  68  90 CALM      30.06F
$$




USA.gov is the U.S. government's official web portal to all federal, state and local government web resources and services.